GFSMW_925_temp_036.txt.gz
Temp
17 17 17 17 16 16 16 17 17 17 17 16 15 15 15 15 15 15 15 15 14 14 14 14 13 12 12 12 11 11 10 9 9 9 8 8 7 7 7 7 7 7 7
16 17 16 16 16 17 17 17 17 17 16 16 16 15 15 15 16 15 15 14 14 14 13 13 12 12 12 11 10 10 9 8 8 8 6 3 6 7 7 7 7 7 7
17 17 16 16 16 16 17 16 16 16 16 16 15 15 15 15 14 14 14 14 13 13 13 12 12 11 11 10 9 9 9 8 8 8 8 4 4 4 7 7 7 7 6
17 17 17 16 16 15 16 16 16 16 16 16 16 15 15 14 13 14 14 13 12 12 12 12 11 10 10 10 9 8 8 8 7 7 7 6 6 3 3 6 6 6 6
17 17 17 17 17 16 16 16 16 16 15 16 16 15 15 14 13 13 13 12 12 12 11 11 10 10 10 9 9 8 8 8 7 7 6 6 6 5 3 1 3 5 5
17 17 18 18 16 16 16 16 15 15 15 15 15 15 14 13 13 12 11 11 11 11 10 10 10 10 9 8 8 8 8 7 6 6 6 5 5 4 3 -0 1 1 3
17 15 15 16 16 16 15 15 15 14 14 14 14 14 14 14 14 13 12 11 10 10 9 10 9 8 8 8 8 8 7 6 6 6 5 5 5 5 4 3 1 0 3
17 16 16 16 15 15 15 15 15 17 15 14 14 14 13 14 13 13 12 11 11 10 9 9 9 8 8 8 8 7 7 6 6 6 5 5 5 4 4 3 2 1 2
16 16 15 15 15 15 15 15 14 15 14 14 14 14 14 13 13 12 12 11 10 10 9 10 9 8 8 8 8 7 6 6 6 5 5 5 4 4 3 3 2 1 1
14 14 14 15 15 15 15 15 15 16 14 14 14 14 14 12 12 12 11 11 10 10 9 9 8 8 8 8 7 6 6 5 5 5 4 4 4 3 3 2 1 0 -1
13 13 13 14 15 15 15 16 15 14 14 15 14 13 13 12 11 11 11 11 10 10 9 9 8 8 8 7 7 6 6 5 5 5 4 4 3 3 2 2 1 0 -1
13 13 13 13 13 14 13 13 14 14 14 13 13 13 12 11 11 11 11 11 10 10 9 9 8 8 8 7 7 6 6 5 5 5 4 3 3 2 2 1 1 1 0
13 13 12 12 12 12 12 14 13 13 14 13 13 12 12 12 12 11 11 11 10 9 9 8 8 8 7 6 6 6 6 5 5 4 4 3 2 2 1 1 1 -0 -1
14 12 12 11 13 13 13 13 12 12 12 12 12 12 11 11 9 9 9 9 9 9 8 8 7 6 6 5 6 6 5 5 5 4 3 3 2 2 1 1 0 -1 -2
14 13 13 11 13 13 12 12 11 10 10 10 11 10 10 9 9 9 9 9 8 7 6 5 5 5 3 4 5 5 5 5 4 4 3 2 2 1 1 0 -0 -1 -2
14 14 14 13 12 12 13 13 13 12 11 11 10 9 9 8 9 9 8 7 6 5 5 4 4 3 3 4 5 5 4 4 4 3 3 2 1 1 0 -1 -1 -2 -3
9 9 8 8 10 12 12 11 10 9 9 8 8 8 8 7 6 5 5 4 4 4 3 3 3 2 2 3 4 4 4 3 3 3 2 1 1 0 -0 -1 -2 -3 -3
7 5 5 5 6 8 8 8 8 8 7 6 6 5 5 5 4 4 3 3 2 2 3 2 1 2 3 3 3 3 3 3 2 2 2 1 1 0 -1 -2 -3 -3 -4
4 3 3 4 5 6 6 7 5 5 5 3 3 4 4 4 3 3 2 3 3 2 2 1 2 2 2 2 2 2 2 2 2 2 1 1 -0 -0 -1 -2 -3 -3 -4
3 3 3 4 4 4 5 5 3 3 3 3 3 3 4 4 4 3 3 3 2 2 2 2 2 2 2 1 1 1 1 1 1 1 1 0 -0 -1 -1 -2 -3 -4 -4
3 3 3 2 3 3 4 3 3 3 3 4 5 4 4 4 3 2 2 2 2 2 2 2 2 1 1 1 1 1 0 0 -0 -0 1 0 -1 -1 -1 -2 -3 -3 -4
2 3 2 3 3 4 4 3 2 3 3 3 2 2 2 2 2 2 2 2 1 1 1 1 1 1 1 1 1 0 0 0 -1 -1 -0 -0 -1 -2 -3 -2 -3 -3 -4
2 3 2 2 3 3 3 2 2 2 2 2 2 2 2 1 1 1 1 1 1 1 0 0 0 1 1 1 1 0 0 -0 -1 -1 -1 -1 -1 -2 -3 -4 -4 -4 -5
2 2 2 2 1 1 1 1 1 2 2 1 1 1 1 1 1 0 0 0 0 0 -0 -1 -1 -0 0 1 1 1 0 -0 -1 -1 -1 -2 -3 -3 -4 -4 -5 -5 -5
2 2 2 1 -0 0 -0 0 1 1 1 0 -0 -1 -1 -1 -1 -1 -1 -1 -1 -1 -2 -2 -2 -2 -2 -1 -0 -0 0 -0 -1 -2 -3 -3 -4 -4 -5 -5 -5 -5 -5
2 1 0 -1 -2 -1 -2 -2 -1 -1 -1 -2 -2 -2 -2 -2 -3 -3 -3 -3 -3 -3 -3 -3 -3 -2 -2 -2 -1 -2 -2 -2 -3 -3 -4 -4 -5 -5 -5 -5 -5 -5 -5

GFSMW_925_temp_039.txt.gz
Temp
19 17 16 16 16 15 15 15 15 16 15 15 15 14 14 15 15 14 14 14 14 15 14 14 14 13 13 12 12 11 11 10 10 9 9 7 7 7 7 7 7 7 7
18 18 17 16 16 16 15 15 15 16 16 15 16 14 14 14 14 14 14 14 14 14 14 14 13 12 12 12 11 11 10 9 8 9 9 11 9 7 7 6 6 6 7
19 18 17 17 16 16 16 15 15 16 16 16 16 15 15 14 13 13 14 13 13 13 13 13 13 12 12 11 11 10 9 9 7 7 10 11 11 8 7 6 6 6 6
20 20 18 17 16 16 16 16 15 16 16 16 15 15 15 14 12 13 13 13 12 13 13 12 12 11 11 11 10 9 8 8 8 6 7 7 7 10 9 7 6 6 6
20 20 20 19 17 16 15 15 15 15 15 16 14 14 14 14 14 13 13 12 12 12 12 12 11 11 11 10 9 8 8 7 8 8 7 6 6 6 7 8 7 6 6
20 20 20 19 18 16 15 15 15 14 14 14 14 14 13 14 14 13 12 12 11 11 11 11 11 11 10 9 8 7 7 7 7 7 6 7 7 7 7 7 7 6 5
22 20 20 19 18 16 15 15 15 14 15 14 13 13 13 14 14 14 13 12 11 10 10 10 10 9 9 8 8 8 7 7 6 6 6 5 6 5 5 5 6 5 5
21 21 20 20 18 17 16 15 15 15 17 15 15 13 13 13 13 14 13 12 11 10 10 9 9 9 8 8 8 7 7 7 6 6 5 5 5 4 4 5 4 5 5
19 20 20 19 18 16 16 15 15 15 16 17 13 13 13 12 13 13 12 11 11 11 9 9 9 8 9 8 7 7 7 6 6 6 5 5 5 4 4 3 3 4 3
18 18 19 18 17 16 16 14 15 15 17 14 13 12 12 12 13 13 12 10 10 10 9 8 8 9 8 7 7 7 7 7 6 5 5 4 4 3 3 3 3 2 1
19 18 18 16 16 16 15 15 15 15 14 13 13 14 13 12 12 11 11 10 10 9 8 8 8 8 7 7 7 7 6 6 6 5 5 4 3 3 3 2 2 2 1
19 18 17 16 15 15 15 14 14 13 13 15 15 14 13 13 12 11 10 9 9 8 8 8 8 7 7 7 7 6 4 5 5 5 4 4 3 3 2 2 2 2 2
18 17 16 16 15 14 13 13 13 13 13 13 12 11 10 9 8 9 9 8 7 7 8 9 8 7 7 7 6 5 4 4 5 4 4 4 3 3 2 2 2 1 0
18 17 16 15 14 14 13 13 12 11 11 10 9 9 8 8 8 7 7 7 7 8 9 8 7 6 5 6 5 4 3 4 4 5 4 4 3 3 2 2 1 1 0
16 16 16 15 14 14 12 12 13 13 12 11 10 9 8 7 7 8 8 8 8 8 7 6 5 4 4 5 3 3 3 3 3 4 4 4 3 3 2 1 1 0 -0
13 13 14 14 13 13 12 11 10 9 9 9 8 7 8 8 8 8 7 7 6 5 4 4 4 4 3 2 3 3 3 3 3 3 3 3 3 2 2 1 0 -0 -1
11 10 10 9 9 10 10 9 8 8 8 7 7 7 7 7 6 5 5 4 3 3 3 3 3 3 2 2 2 2 2 2 2 2 2 2 2 2 1 0 -0 -1 -1
9 8 8 7 7 7 7 7 6 6 6 5 5 5 4 3 3 3 2 2 3 4 3 3 3 2 2 2 2 2 2 2 2 2 1 1 1 1 1 -1 -1 -2 -2
6 5 5 5 5 5 5 6 5 5 5 4 4 4 3 3 3 3 3 4 3 3 3 3 2 1 1 2 2 2 1 1 1 1 1 0 0 1 1 -2 -2 -2 -2
5 5 4 4 4 4 5 5 4 4 4 4 4 4 4 4 4 4 3 3 2 2 1 1 1 2 1 2 2 1 0 -0 -0 -0 0 1 1 1 0 -2 -2 -2 -2
4 4 4 4 4 4 4 4 4 3 3 3 3 3 3 3 2 2 2 1 1 1 1 2 2 2 2 1 1 1 0 -0 -0 -0 -0 -1 1 0 -0 -1 -3 -3 -3
4 4 4 3 3 3 3 3 2 2 2 2 2 2 2 2 2 1 1 1 1 0 0 0 0 0 1 1 1 1 1 0 -0 -1 -1 -1 -0 -0 -1 -2 -2 -3 -4
4 4 3 3 2 2 3 2 2 2 2 2 1 1 1 1 1 0 0 0 -0 -0 -0 -1 -0 -0 -0 -1 0 1 1 0 -0 -0 -0 -0 -1 -1 -2 -3 -3 -3 -5
3 3 3 2 1 1 0 0 1 1 1 -0 -1 -1 -1 -1 -1 -1 -1 -1 -1 -1 -1 -1 -2 -2 -2 -2 -2 -2 -2 -2 -2 -2 -2 -2 -2 -3 -3 -3 -3 -4 -4
3 2 2 1 -0 -1 -2 -1 -0 -0 -1 -1 -2 -2 -2 -2 -2 -2 -3 -3 -3 -3 -3 -3 -3 -3 -3 -3 -4 -4 -3 -3 -3 -3 -3 -3 -3 -4 -4 -4 -4 -4 -4
2 1 -0 -1 -2 -3 -3 -3 -2 -1 -2 -2 -3 -4 -4 -4 -4 -4 -4 -5 -6 -5 -5 -5 -5 -5 -6 -5 -5 -6 -5 -4 -4 -3 -3 -3 -3 -3 -3 -4 -4 -4 -5

GFSMW_925_temp_042.txt.gz
Temp
22 20 19 19 19 18 18 17 17 17 16 16 16 17 17 17 16 15 15 14 15 14 15 15 13 14 14 14 13 13 13 13 12 13 13 12 10 10 11 10 10 10 9
23 21 20 20 19 19 18 18 18 17 17 17 17 18 18 17 17 16 15 14 15 14 14 14 14 14 13 12 12 13 13 13 12 13 13 16 13 10 10 10 10 9 9
24 23 21 21 20 20 19 18 18 18 18 18 18 17 17 17 16 14 14 14 14 14 14 13 14 13 13 13 12 12 12 13 11 10 12 14 16 14 12 9 9 9 9
25 25 23 22 21 20 20 19 19 19 18 18 18 17 18 18 17 15 14 14 13 13 13 13 13 12 13 12 12 12 12 11 11 9 9 10 12 14 14 11 9 9 8
26 25 25 23 22 21 20 19 19 19 18 17 18 17 18 19 19 16 15 14 13 12 12 12 12 12 12 12 11 10 10 10 9 9 11 11 11 10 11 12 12 11 10
26 26 26 24 23 22 20 19 19 19 18 17 16 17 17 18 15 15 14 13 12 12 11 11 11 11 11 10 10 10 9 8 7 10 11 11 11 12 11 11 11 10 9
27 27 27 26 24 23 21 19 19 19 17 16 16 15 15 16 14 14 14 13 12 10 10 10 10 10 10 10 9 9 7 7 8 9 10 9 9 9 9 9 9 10 9
27 27 27 26 25 24 22 19 19 18 16 15 15 16 14 14 13 14 14 13 11 10 10 10 9 10 9 8 9 8 8 7 8 8 8 9 8 8 8 8 8 8 8
27 27 27 26 25 24 22 20 19 18 18 15 17 17 14 13 13 13 13 11 11 10 10 9 9 8 8 9 8 7 6 7 8 8 7 7 8 7 7 7 7 7 7
25 25 25 25 24 23 22 20 19 20 19 15 16 14 14 13 13 13 12 11 10 10 9 9 8 7 8 8 7 7 7 8 7 7 7 7 7 7 6 6 6 6 6
26 25 24 23 22 21 21 20 19 20 19 17 16 14 13 13 13 12 11 10 10 10 8 8 8 7 8 7 7 7 7 6 5 6 6 6 6 6 6 6 6 6 6
26 25 24 22 21 21 20 19 19 19 19 18 17 15 14 13 12 11 10 9 8 8 7 8 7 8 7 6 6 6 6 5 5 6 7 6 6 6 6 6 5 5 5
25 25 23 23 22 20 19 18 18 18 17 17 15 14 12 11 10 9 9 8 8 7 8 8 7 6 6 6 6 6 5 4 5 6 6 6 6 6 6 6 5 5 5
24 25 23 22 21 19 18 18 16 15 14 14 14 13 12 11 11 9 8 7 7 7 7 7 6 6 6 5 4 4 3 3 4 4 5 5 6 6 6 5 5 5 4
22 22 22 22 20 19 17 16 15 14 14 14 14 12 11 11 10 9 9 8 8 6 6 5 5 5 3 4 4 3 2 2 4 5 5 5 5 5 5 5 5 5 4
20 20 20 20 18 17 17 15 14 13 13 13 12 11 10 9 8 7 6 6 5 5 5 4 4 4 4 4 3 3 2 2 4 5 5 5 4 3 3 3 3 3 3
17 17 17 16 16 15 15 14 12 12 12 11 10 9 8 7 5 5 4 5 4 4 5 4 5 4 5 4 3 2 1 3 4 4 5 5 5 4 3 3 2 1 1
15 15 15 14 13 13 12 11 11 10 10 10 9 8 7 6 5 4 4 3 4 4 4 4 4 4 3 3 2 2 1 3 4 4 4 4 4 4 4 3 3 2 1
14 13 12 12 12 11 11 11 10 10 9 8 8 7 7 6 6 5 5 5 5 4 4 3 3 2 2 3 2 2 2 3 3 3 3 3 3 3 3 2 2 2 2
12 11 11 10 10 10 10 10 9 9 8 7 7 7 7 6 6 5 3 3 3 3 3 3 4 3 3 3 2 2 1 2 2 2 3 2 2 1 1 1 1 1 1
10 10 10 10 9 9 9 9 8 7 6 6 5 4 3 3 4 4 4 4 4 4 4 3 3 3 3 2 1 1 0 1 1 2 2 2 2 1 0 -0 -1 -0 0
9 9 9 9 8 8 8 6 5 4 4 3 4 4 4 4 4 4 4 4 4 3 3 3 2 2 2 2 1 -0 -1 -1 -2 -1 0 1 1 0 -0 -1 -2 -2 -1
10 9 8 7 7 7 7 6 4 4 4 4 4 3 3 3 3 3 3 3 3 3 2 2 2 1 0 -1 -1 -2 -2 -2 -2 -1 -2 -2 -2 -2 -2 -2 -2 -2 -3
9 8 7 6 5 5 5 5 4 4 4 4 3 3 2 3 2 2 2 2 1 0 0 0 -0 -0 -1 -1 -5 -5 -4 -4 -4 -3 -2 -3 -3 -3 -2 -2 -3 -3 -3
8 7 6 5 4 3 3 3 3 3 3 2 2 1 1 1 1 1 -1 -1 -2 -4 -4 -3 -3 -3 -4 -6 -7 -7 -6 -6 -6 -6 -5 -3 -2 -2 -2 -2 -3 -3 -3
7 6 5 3 2 1 1 1 1 2 2 1 0 -1 -1 -1 -0 -0 -1 -3 -4 -5 -6 -7 -7 -6 -7 -9 -8 -8 -8 -7 -6 -4 -3 -2 -2 -2 -1 -2 -3 -3 -3

GFSMW_925_temp_045.txt.gz
Temp
21 20 20 19 19 19 19 18 17 17 16 16 18 18 18 19 19 19 19 18 17 16 16 18 16 16 17 16 15 15 15 15 15 15 16 16 14 12 13 13 13 12 11
23 21 21 21 20 20 20 19 18 18 17 17 18 19 19 19 19 19 17 16 17 17 16 17 16 15 16 16 14 15 15 16 14 15 15 16 15 13 12 13 12 11 11
25 23 23 23 22 21 21 20 20 19 19 20 19 20 20 20 19 19 18 16 16 17 16 16 16 16 16 15 14 14 15 15 14 13 13 13 15 16 15 12 12 12 11
27 25 24 23 22 22 22 21 21 20 19 20 20 20 20 20 20 19 17 16 16 16 16 16 15 15 15 15 14 14 14 14 15 12 11 11 12 14 15 14 12 11 10
28 27 25 24 23 22 22 21 21 21 21 20 20 20 20 20 21 20 18 17 17 15 15 15 14 14 14 14 14 14 13 13 11 12 12 12 12 12 12 13 14 13 12
28 28 27 25 25 23 22 21 21 21 21 21 20 20 20 19 20 19 18 18 16 15 15 15 13 13 13 13 13 12 11 10 9 9 11 13 13 13 13 13 13 13 12
29 29 28 27 26 24 23 22 21 21 21 21 19 19 19 18 17 17 17 16 16 15 14 13 12 12 12 12 12 11 10 9 9 9 11 12 11 11 11 11 11 11 11
29 29 29 28 27 26 24 23 22 22 22 20 19 17 17 17 16 16 15 14 14 13 13 12 11 11 11 11 10 10 9 9 8 9 10 10 10 10 10 10 10 10 10
30 30 30 29 28 27 26 24 22 22 22 20 17 16 16 15 15 14 14 14 13 13 11 11 10 10 10 10 8 8 8 8 8 8 8 8 8 8 9 9 9 8 8
29 30 30 30 29 28 27 25 23 22 21 17 16 16 15 15 15 14 13 13 13 12 10 10 10 10 9 8 7 7 7 7 8 7 6 6 8 8 8 8 8 8 8
28 28 28 28 28 27 26 25 23 23 21 19 17 17 16 15 14 14 13 13 12 10 10 9 9 9 8 6 6 7 7 7 6 6 5 6 7 8 8 8 8 7 7
29 29 27 26 25 25 25 24 23 22 23 18 18 18 16 16 14 13 13 12 11 10 10 9 8 8 7 6 7 7 6 6 5 5 4 5 7 7 7 7 7 7 7
28 28 27 26 25 24 24 23 22 22 22 22 19 17 14 13 13 12 11 11 10 9 8 8 8 8 7 6 6 6 5 4 5 4 4 5 6 7 6 7 7 7 7
28 28 27 26 25 23 22 21 21 21 20 20 19 17 14 12 11 10 9 9 8 7 7 8 7 7 7 6 5 5 4 5 4 3 4 5 6 6 6 7 7 7 7
27 27 27 26 24 22 21 20 18 17 17 18 17 15 14 13 12 11 10 9 8 7 7 7 6 6 6 5 5 5 5 4 3 3 3 5 5 6 6 6 6 7 6
25 25 25 24 23 21 20 18 17 16 16 16 14 13 13 12 11 11 9 9 8 7 6 6 6 5 4 5 4 5 4 3 2 2 4 6 6 6 6 5 5 4 4
23 23 23 22 21 19 18 16 16 15 15 14 13 12 11 9 9 8 7 7 6 6 4 4 4 5 6 5 4 4 3 2 2 4 5 5 6 6 6 6 5 4 4
21 20 20 19 18 17 16 15 15 14 13 12 11 10 9 8 8 8 7 6 6 5 5 6 6 5 4 4 4 3 2 3 4 4 5 5 5 5 5 5 5 4 3
20 19 18 17 16 16 15 15 14 13 12 11 10 10 9 9 8 8 7 6 6 6 5 5 4 4 4 4 3 2 3 3 3 4 4 4 4 4 4 3 3 3 4
17 17 16 16 15 15 14 14 13 12 11 11 10 9 9 9 8 6 6 5 4 5 5 5 6 6 5 5 3 2 2 2 2 2 3 3 3 3 3 2 2 1 2
16 15 15 15 14 14 13 13 12 11 10 9 8 7 7 6 6 6 7 7 7 6 5 5 5 5 4 4 2 1 -0 -1 -1 -1 -0 0 1 1 0 -1 -1 0 1
15 15 14 13 13 13 12 12 10 8 7 7 6 7 7 7 7 7 6 6 6 5 5 4 4 4 3 2 0 -1 -2 -2 -3 -2 -2 -1 -1 -2 -1 -1 -1 -1 -2
15 14 13 12 12 11 10 9 8 7 7 7 7 6 6 6 6 6 5 6 5 4 4 3 3 3 2 1 -1 -3 -4 -4 -4 -4 -4 -4 -4 -3 -2 -2 -1 -2 -2
15 14 12 11 11 10 10 8 8 7 7 7 6 6 6 5 5 5 4 4 3 2 1 1 1 0 -0 -1 -4 -5 -5 -5 -5 -5 -5 -5 -4 -3 -3 -2 -2 -3 -2
14 12 11 10 9 9 8 7 7 7 7 6 5 4 4 4 4 3 2 1 -3 -3 -2 -2 -2 -3 -4 -5 -8 -8 -7 -7 -7 -7 -5 -3 -2 -2 -1 -1 -1 -1 -2
12 11 10 9 8 7 6 6 6 6 5 4 3 2 2 2 3 2 -0 -2 -2 -4 -5 -6 -6 -6 -7 -8 -9 -9 -8 -8 -7 -6 -4 -4 -4 -4 -4 -3 -4 -1 -2

GFSMW_925_temp_048.txt.gz
Temp
19 18 18 16 15 14 14 13 13 14 14 15 15 16 17 18 18 18 19 18 18 17 16 17 17 16 17 17 16 16 16 16 16 15 16 16 15 14 14 13 13 13 12
20 20 18 18 17 16 15 15 15 14 14 15 16 17 18 18 18 19 19 19 18 17 16 17 17 16 16 17 16 16 15 15 15 14 15 12 13 13 13 13 13 12 12
20 20 19 19 19 17 16 16 16 16 16 16 17 18 19 19 19 19 19 18 17 17 17 16 17 16 16 16 16 15 15 15 15 14 13 11 11 13 13 13 13 12 12
22 21 20 20 19 19 18 19 18 18 17 17 17 19 19 19 19 20 19 18 18 16 17 17 17 16 16 16 15 14 14 15 14 13 12 12 12 10 9 12 12 12 11
25 22 22 22 21 21 20 20 19 19 19 19 19 19 20 20 20 20 20 19 17 17 17 17 16 16 15 15 15 14 14 14 13 12 12 12 12 12 11 8 12 11 11
26 25 24 23 23 23 22 21 21 21 20 19 20 19 20 20 20 20 19 18 17 17 16 16 16 15 15 14 14 14 14 13 12 11 11 11 12 12 12 10 11 11 12
27 26 25 24 24 23 22 22 21 21 21 20 20 20 20 19 20 19 19 17 16 14 15 15 15 14 14 13 13 13 12 12 11 10 10 10 11 11 10 10 10 10 10
28 27 27 25 25 24 22 22 21 21 21 21 21 20 20 20 19 19 18 17 17 15 14 14 14 13 13 12 12 12 11 10 9 9 9 10 10 9 9 9 9 6 9
29 28 28 27 26 25 24 22 22 21 21 21 21 20 19 18 18 16 17 17 17 14 14 14 13 12 12 11 11 11 10 8 8 8 9 8 9 8 8 8 9 8 4
29 29 28 28 27 26 24 23 22 22 22 22 20 19 19 16 16 16 15 15 14 13 13 13 12 12 11 10 10 10 8 7 8 8 7 7 7 7 7 8 8 8 8
28 28 28 29 28 28 26 23 23 23 22 22 18 17 16 16 15 15 15 14 13 12 13 12 11 10 10 10 9 8 7 7 6 6 6 6 5 6 7 7 8 8 7
29 27 28 27 27 27 27 24 24 23 22 20 18 18 19 17 15 15 15 14 13 13 12 11 9 9 9 9 8 7 7 6 6 7 6 5 5 6 7 7 7 7 7
28 28 27 26 26 26 26 26 24 24 21 21 18 18 17 17 15 14 13 12 12 11 10 10 9 9 8 7 7 6 6 6 6 6 4 5 5 5 5 6 6 6 6
28 28 27 26 25 25 24 24 23 23 22 20 18 16 15 14 13 12 12 11 11 10 10 9 8 8 7 7 5 5 6 6 5 5 4 4 4 4 5 5 6 6 6
28 27 27 26 24 23 23 22 20 19 19 17 15 14 13 12 11 11 10 9 9 8 7 7 7 7 7 6 6 6 5 5 4 4 4 3 4 4 5 5 5 6 5
27 27 27 26 23 23 21 19 18 18 18 15 14 13 13 12 11 10 9 8 8 7 7 7 7 6 6 6 5 5 5 4 5 4 3 3 4 5 6 6 6 6 5
26 25 25 24 22 21 19 18 17 17 16 15 14 13 12 10 10 9 8 8 7 6 6 5 6 5 5 5 5 4 4 4 3 3 3 3 5 5 5 5 5 5 5
24 23 23 21 19 19 18 16 16 15 14 13 12 11 10 9 8 8 7 6 6 5 5 5 5 5 5 5 4 4 3 3 3 3 4 4 4 4 4 4 4 3 3
22 21 20 20 19 17 16 16 15 14 13 12 11 10 9 9 8 7 7 6 6 6 6 6 6 5 5 5 4 3 2 3 2 2 2 2 2 2 1 1 0 1 2
20 20 19 18 17 16 16 15 14 13 12 11 11 10 10 9 8 7 7 6 6 5 5 5 5 5 5 3 3 2 1 1 0 0 0 0 -0 -0 -1 -1 -2 -2 -2
19 18 17 17 16 15 15 14 13 12 12 11 10 9 8 7 7 6 6 6 6 6 5 5 5 5 3 2 1 1 -0 -1 -2 -3 -3 -3 -3 -3 -2 -2 -2 -3 -2
18 17 17 16 15 15 14 13 12 11 9 8 7 7 7 7 7 7 7 7 6 5 5 4 4 3 2 1 0 -1 -1 -2 -3 -4 -4 -4 -5 -4 -3 -4 -4 -3 -2
17 17 16 15 14 14 13 12 10 9 7 7 8 7 7 7 7 6 6 6 5 4 3 3 2 2 1 -0 -2 -2 -2 -4 -5 -5 -5 -5 -4 -4 -3 -3 -2 -2 -2
17 16 15 14 13 13 12 10 9 8 8 8 7 7 6 6 6 5 5 4 2 2 1 1 1 -0 -1 -2 -4 -5 -5 -6 -7 -7 -6 -5 -5 -4 -4 -4 -3 -3 -4
16 15 13 13 12 11 10 9 8 8 8 7 6 5 5 5 4 3 2 0 -1 -1 -1 -2 -3 -4 -4 -6 -7 -8 -8 -8 -8 -7 -7 -6 -4 -5 -6 -6 -5 -5 -5
15 14 13 12 11 10 9 8 8 8 7 5 4 3 3 4 4 1 -1 -2 -2 -3 -3 -4 -5 -6 -7 -7 -8 -8 -8 -8 -7 -7 -6 -5 -6 -7 -7 -7 -7 -7 -7

GFSMW_925_temp_054.txt.gz
Temp
13 12 11 11 11 11 11 10 10 11 13 13 13 14 15 16 16 18 17 17 18 18 18 17 17 17 17 17 17 17 17 16 16 15 15 14 15 15 15 14 14 13 12
12 12 11 10 10 10 10 11 11 12 12 12 13 13 14 16 17 17 17 18 18 18 18 18 17 17 17 16 17 17 16 16 16 15 13 12 13 14 14 13 13 13 13
13 13 12 10 11 10 10 10 11 12 12 12 13 13 14 15 17 17 17 18 18 18 18 17 17 17 17 17 16 16 16 16 15 15 15 10 10 10 13 13 13 13 12
15 14 13 11 11 11 10 11 11 11 12 12 12 13 14 15 15 16 17 17 18 18 18 17 17 17 17 16 16 16 16 15 15 14 14 14 13 10 11 12 13 12 12
16 15 14 13 12 12 11 11 12 12 12 13 13 13 14 15 15 16 16 17 17 17 18 17 17 17 17 17 16 15 15 15 15 14 12 11 11 11 10 9 11 12 12
16 16 15 14 13 12 12 12 12 12 12 13 13 13 14 14 14 15 16 17 17 18 18 18 17 17 16 16 15 14 14 14 15 14 13 12 10 9 9 7 9 9 11
17 17 16 15 14 13 13 13 13 13 13 13 14 14 14 15 14 14 15 17 17 17 18 18 17 16 14 15 15 13 14 14 14 13 12 10 11 10 9 9 8 8 9
18 17 17 16 16 15 14 14 14 14 14 14 14 15 15 14 14 15 15 17 17 18 18 18 17 17 15 14 14 13 14 14 13 12 11 10 10 9 8 8 7 6 6
19 18 18 17 17 16 15 14 14 14 15 14 14 14 14 14 15 15 16 17 18 17 18 18 16 15 14 14 14 13 13 13 12 11 10 10 9 8 8 7 7 6 4
20 19 18 18 18 17 16 15 15 15 15 15 15 15 15 15 15 15 17 17 18 16 17 17 16 14 14 14 13 13 12 11 10 9 9 7 7 7 7 7 7 6 5
21 20 19 19 19 19 18 17 16 16 16 16 16 16 16 15 15 15 16 17 16 15 14 15 15 14 13 13 12 12 11 10 9 8 7 6 6 6 7 7 7 6 6
22 22 21 20 20 20 19 18 18 17 17 17 18 16 16 15 14 15 16 17 15 16 14 14 14 13 12 12 12 11 10 9 8 7 7 6 6 6 6 6 5 5 5
19 19 19 20 21 20 20 19 18 18 18 17 17 17 16 14 14 16 15 15 15 15 14 14 13 12 12 11 11 10 9 8 8 7 6 6 5 6 5 5 4 4 4
21 19 18 18 19 20 20 20 18 18 18 17 16 16 15 15 15 17 14 15 15 14 13 13 12 11 11 11 9 8 8 7 7 6 6 5 5 5 5 4 4 3 3
20 19 19 17 17 19 19 20 18 17 17 17 16 16 16 16 15 14 13 14 13 13 12 11 10 10 10 9 8 7 7 7 5 5 5 5 5 4 4 3 2 2 2
20 20 19 18 17 17 17 18 18 17 16 16 16 15 13 13 12 12 13 12 12 11 11 10 10 9 8 8 7 7 6 5 5 4 5 5 4 3 3 2 2 1 1
20 19 20 18 17 16 17 16 16 17 16 14 13 12 12 11 11 11 11 11 10 9 8 8 8 7 7 6 6 6 5 5 4 4 4 3 2 2 2 1 1 1 1
20 19 17 16 16 15 15 14 14 13 12 12 11 11 10 10 10 10 9 9 8 8 7 7 6 6 6 6 5 5 5 4 3 3 2 2 1 1 0 0 -0 -1 -1
17 16 17 15 15 14 13 13 11 11 10 10 10 9 9 8 7 7 8 8 7 6 6 6 6 6 5 5 4 4 4 3 2 1 1 0 -0 -1 -1 -2 -3 -3 -3
15 14 15 14 14 13 13 12 10 10 9 9 9 9 8 8 8 8 8 7 6 6 5 5 5 5 5 4 4 3 3 2 1 0 -0 -1 -1 -2 -3 -4 -4 -5 -5
14 15 14 13 12 13 12 10 10 9 9 9 9 8 8 8 8 7 6 6 5 5 4 4 4 3 3 2 2 1 1 1 -0 -1 -2 -3 -3 -3 -4 -5 -5 -6 -5
13 13 12 12 12 13 13 10 9 9 9 9 9 8 8 7 7 6 6 5 5 4 2 1 -0 -0 -0 0 0 0 -0 -1 -2 -3 -4 -4 -4 -5 -5 -6 -6 -6 -7
12 13 12 11 12 12 12 9 8 9 9 8 7 7 7 7 6 6 5 5 4 2 -1 -1 -2 -3 -3 -3 -3 -2 -2 -3 -3 -4 -5 -5 -5 -6 -6 -7 -7 -8 -8
12 12 11 10 9 11 10 10 8 9 8 7 6 6 6 6 5 5 4 4 3 1 -1 -2 -4 -4 -5 -5 -4 -4 -4 -5 -5 -6 -6 -6 -6 -7 -7 -8 -9 -9 -9
12 12 11 9 8 9 8 8 8 8 6 6 6 5 4 4 3 2 2 2 1 2 0 -2 -3 -4 -6 -6 -5 -5 -6 -6 -6 -6 -7 -7 -8 -8 -9 -9 -10 -11 -11
11 10 9 8 7 7 7 7 7 8 7 4 3 2 2 0 -0 -0 -2 -2 -1 -1 -1 -2 -2 -4 -5 -6 -6 -7 -7 -7 -7 -7 -8 -9 -9 -10 -10 -11 -11 -12 -12

GFSMW_925_temp_060.txt.gz
Temp
11 11 11 11 11 11 11 12 12 11 13 14 13 14 14 14 15 16 16 17 16 17 16 17 18 16 17 16 17 16 15 15 15 15 14 14 14 14 14 14 14 14 14
12 12 12 11 11 11 11 11 11 11 11 13 13 14 14 15 16 15 16 16 16 17 17 17 18 17 18 16 17 16 15 15 15 14 13 11 13 14 14 14 14 14 13
12 12 12 11 11 11 11 11 11 12 12 12 13 14 13 14 15 15 17 18 17 15 16 17 17 17 16 17 17 17 16 15 14 14 15 10 10 11 13 13 13 13 13
12 12 12 11 11 11 11 11 11 11 12 13 13 13 14 13 14 16 16 16 17 16 17 17 17 17 17 17 17 16 16 16 15 12 13 13 12 10 11 11 12 12 12
12 11 11 11 11 11 11 11 11 11 11 12 12 12 13 14 14 16 16 16 16 16 17 17 17 17 17 16 16 16 15 15 14 14 12 11 11 11 10 10 10 11 12
13 12 11 10 10 11 11 11 10 11 11 11 12 13 13 14 15 15 15 16 17 16 17 17 17 17 17 16 17 16 15 14 14 13 13 13 10 10 9 8 9 10 11
13 12 11 10 10 10 10 10 10 10 10 11 11 12 13 14 14 15 15 16 16 16 17 17 17 17 16 16 17 16 15 14 13 13 13 13 12 12 11 10 8 8 9
14 13 12 11 10 10 10 10 10 10 10 11 11 12 12 13 13 14 15 15 16 16 17 17 16 16 16 17 16 15 15 14 14 13 13 13 11 11 11 10 9 6 7
14 14 13 13 12 11 11 10 10 10 10 11 11 12 12 12 12 13 14 14 15 16 16 16 16 16 15 15 14 15 14 13 13 13 13 11 11 11 11 10 10 9 6
14 15 14 13 13 13 12 12 12 12 12 11 12 12 12 12 12 13 13 13 14 14 15 15 16 15 15 15 14 13 13 13 13 12 12 11 11 10 9 8 8 8 7
15 15 15 15 14 13 13 12 12 12 12 12 12 12 12 12 12 12 13 13 13 14 14 15 15 14 14 13 13 12 12 12 12 11 11 11 10 9 8 8 7 6 6
16 16 15 15 15 14 13 12 12 12 13 13 13 12 12 12 13 13 13 12 13 13 14 14 15 15 14 14 13 13 12 12 12 11 10 9 9 8 8 7 6 6 5
15 15 15 15 15 15 14 13 12 13 13 13 13 13 13 13 12 12 12 12 13 13 14 13 12 14 14 13 13 12 12 12 12 11 10 9 8 7 6 6 5 5 4
16 15 15 15 16 15 15 14 14 13 13 13 13 13 13 13 13 13 13 13 13 13 15 12 12 13 14 13 12 12 11 11 10 10 8 8 8 7 5 5 4 4 4
19 16 15 16 16 16 16 15 15 14 14 13 13 13 13 14 13 13 13 13 13 13 14 13 12 12 13 12 12 11 10 10 9 8 7 7 6 6 5 4 4 3 3
19 18 16 15 15 16 16 16 16 15 14 14 13 14 14 14 14 13 13 13 13 13 13 13 12 12 12 12 12 11 10 9 8 7 5 5 5 4 4 3 3 3 2
18 17 17 17 17 16 17 16 16 16 15 14 14 14 14 14 14 13 13 13 13 12 12 12 11 11 11 11 11 10 9 7 6 6 5 4 3 3 3 2 2 1 1
18 17 17 16 18 18 17 17 17 17 15 14 14 14 14 14 13 13 13 12 12 11 11 11 11 10 11 10 8 7 7 6 5 5 4 3 2 1 1 1 -0 0 -1
15 15 17 18 19 19 18 16 16 16 15 14 14 14 13 13 13 11 12 11 10 10 9 9 8 8 7 7 6 6 5 4 3 3 2 2 0 -1 -1 -1 -0 -1 -2
14 14 16 18 17 17 16 15 12 13 13 13 12 12 12 12 11 11 10 10 8 7 7 6 6 6 5 5 5 4 3 2 1 -0 -1 -1 -1 -1 -1 -1 -2 -3 -5
15 14 13 13 14 14 14 13 11 12 11 11 11 11 11 11 10 9 8 7 6 5 4 4 3 4 4 3 3 4 3 2 0 -1 -2 -2 -2 -2 -3 -3 -4 -5 -6
15 13 12 12 12 12 13 10 9 9 10 10 10 9 9 9 7 6 4 4 3 2 1 1 -0 0 1 2 2 2 2 1 1 -1 -2 -2 -3 -4 -5 -6 -6 -6 -7
12 11 11 9 10 10 12 9 7 9 9 8 6 6 6 5 5 5 3 2 1 -0 -1 -2 -3 -4 -2 -1 -0 -0 -0 -1 -1 -2 -3 -4 -5 -6 -6 -7 -7 -7 -8
10 10 10 8 7 9 10 9 8 8 7 5 4 4 4 3 3 2 2 1 0 -1 -2 -3 -4 -4 -4 -3 -3 -2 -2 -2 -3 -4 -5 -6 -6 -7 -7 -8 -8 -9 -10
9 9 8 7 6 8 7 7 8 8 6 5 3 3 3 3 1 1 0 0 0 2 1 -1 -2 -4 -5 -5 -4 -3 -3 -4 -5 -5 -7 -7 -8 -8 -9 -9 -10 -10 -11
7 5 4 3 3 4 4 5 6 6 4 2 1 0 -0 -1 -1 -2 -3 -2 -1 -1 -1 -3 -3 -5 -5 -6 -7 -6 -5 -6 -7 -7 -8 -9 -9 -9 -10 -11 -11 -12 -12